Theta_e
289 289 290 290 290 290 291 290 291 291 291 294 295 297 299 300 301 304 310 312 314 318 323 324 325 325 325 324 324 322 322 321
287 287 287 288 288 288 288 287 287 288 289 291 293 295 296 295 296 299 302 304 307 312 316 321 322 324 324 324 324 322 321 322
285 285 284 284 285 286 286 285 285 285 288 289 289 292 290 290 292 294 296 298 300 305 311 316 319 321 322 322 323 322 321 321
283 283 283 282 282 284 283 282 283 284 286 287 287 288 288 287 289 291 291 293 295 298 301 306 312 317 319 320 321 321 322 321
282 281 282 281 280 282 280 280 280 282 284 284 284 285 286 285 286 288 289 290 292 294 296 299 303 307 312 314 317 319 320 321
281 280 280 279 278 280 278 278 278 280 281 282 281 282 282 282 283 284 287 289 290 292 293 294 296 299 301 302 304 306 309 316
279 278 277 276 277 277 276 276 278 278 278 279 278 277 278 279 279 281 283 287 289 290 291 292 294 295 295 295 297 298 301 304
276 276 275 275 275 273 274 275 275 276 277 275 275 275 275 276 277 278 280 283 286 288 290 291 293 294 294 293 295 295 296 298
274 273 273 273 272 273 273 274 273 274 273 273 273 273 274 274 275 276 277 279 283 287 288 289 291 293 293 292 293 294 294 295
273 272 271 271 271 271 272 272 272 271 270 271 271 271 272 272 273 274 275 278 281 285 286 287 288 291 292 292 290 289 289 290
271 270 269 268 270 270 270 270 269 269 270 270 270 270 270 271 272 273 275 277 280 283 286 287 287 290 291 291 288 287 288 289
268 267 267 268 269 268 268 267 268 268 268 268 269 269 270 271 272 272 273 276 279 283 286 287 288 288 290 291 288 287 287 287
266 266 267 268 267 266 266 266 267 267 266 266 267 269 271 270 271 273 275 277 280 283 285 287 288 288 289 290 291 291 287 287
265 265 265 265 265 264 264 266 265 264 264 266 268 269 270 270 271 272 274 278 281 282 282 284 287 288 289 289 290 290 288 287
264 263 262 263 264 263 264 265 263 262 264 267 267 267 269 271 273 275 278 277 276 275 277 282 285 286 287 286 285 285 286 286
262 262 261 262 261 261 263 263 262 263 265 266 267 267 268 269 272 273 275 277 275 274 276 277 280 284 287 286 285 285 285 285
261 260 259 259 259 260 261 262 261 262 264 265 266 266 267 267 268 273 275 276 277 277 277 276 280 282 283 282 283 285 285 280
258 258 256 256 257 258 260 260 260 261 263 264 265 265 265 265 265 265 268 272 273 275 274 276 277 277 278 278 276 276 274 270
254 253 253 253 254 258 259 258 258 259 262 262 263 264 264 264 264 265 264 263 264 270 271 272 274 274 274 273 270 265 266 265
249 250 252 252 254 258 258 257 257 260 261 261 261 262 263 263 263 264 263 263 263 264 268 266 270 270 270 269 263 262 262 263
Wind_Speed
11 12 11 11 10 12 12 12 11 12 11 11 11 11 11 11 12 13 12 13 13 13 12 11 13 14 14 13 13 14 13 12
10 10 10 11 12 12 13 15 15 13 12 12 12 12 12 11 12 13 14 14 14 14 14 13 12 12 13 15 14 14 15 15
8 9 11 12 12 12 13 14 14 13 12 11 11 11 11 12 13 14 15 14 15 15 15 13 12 11 13 15 13 15 16 16
9 10 11 12 13 12 13 14 14 15 14 14 13 14 13 15 14 14 15 15 16 14 14 14 14 12 11 12 14 15 15 15
9 9 9 10 12 11 13 14 15 14 13 14 14 15 14 16 15 15 16 16 15 15 15 14 15 14 12 10 11 13 12 13
10 11 12 12 12 11 13 13 14 13 13 13 14 14 15 15 15 16 15 16 17 17 15 15 13 10 13 13 12 12 12 12
12 11 13 12 13 14 13 14 13 13 13 14 15 15 15 15 16 15 15 15 16 18 17 17 12 18 17 15 11 12 13 12
9 10 11 11 12 13 13 14 13 12 12 13 14 15 15 15 16 15 16 16 16 15 17 16 15 16 18 18 11 11 12 14
8 10 11 12 12 12 12 12 12 12 14 15 16 16 15 16 15 15 14 16 16 15 15 15 13 20 19 16 11 10 12 11
9 11 11 11 12 12 12 12 12 14 14 16 16 17 17 17 17 16 15 16 16 15 16 16 15 21 19 14 9 9 10 10
9 8 8 10 11 12 13 13 15 16 16 15 16 16 17 17 17 16 15 16 14 16 14 17 17 19 20 15 6 9 8 9
8 9 10 11 13 12 12 13 14 15 15 14 15 16 16 16 15 16 17 18 16 17 14 15 14 15 21 19 8 7 7 7
8 9 8 10 10 11 11 14 14 14 14 14 14 13 13 17 14 16 16 16 16 16 14 10 11 14 16 20 17 14 8 8
5 6 7 8 10 12 13 14 15 14 14 13 14 14 14 14 15 14 14 12 12 12 13 12 10 9 16 20 18 14 8 6
6 7 9 10 11 9 12 13 13 14 14 13 14 15 14 12 11 13 6 10 11 12 13 13 11 10 7 7 6 7 6 6
6 7 8 10 10 10 12 13 13 13 12 13 11 12 12 11 11 11 11 14 12 12 12 14 15 9 13 9 5 4 4 1
5 5 7 8 9 10 11 11 11 11 10 11 10 10 10 10 13 18 22 23 25 27 23 14 28 29 25 27 25 21 11 6
5 5 6 6 8 8 10 10 10 9 10 9 10 10 10 10 10 13 16 21 25 28 29 29 30 31 27 26 28 32 22 11
4 5 5 6 7 8 9 9 7 8 9 7 8 9 9 10 9 9 10 12 14 20 24 28 30 32 34 30 25 18 18 12
2 4 5 6 7 8 8 8 7 7 7 8 7 7 8 8 9 8 9 10 11 12 18 21 28 28 31 31 14 12 12 11
Wind_Direction
38 34 32 29 24 24 21 18 7 3 359 353 347 350 347 343 345 337 336 332 324 311 288 262 246 239 238 240 237 234 231 230
32 28 30 24 18 16 14 6 5 359 355 352 350 345 353 350 344 338 332 333 327 322 309 291 267 251 244 245 243 238 236 236
34 22 25 21 10 13 9 1 358 349 347 349 349 348 349 347 341 338 333 330 325 320 319 309 287 272 259 256 249 245 243 239
39 27 22 12 6 5 5 355 352 347 344 343 347 348 345 341 338 336 333 328 325 322 319 316 315 305 280 267 260 255 247 243
38 19 21 9 1 359 356 351 347 344 338 338 343 342 340 334 332 332 330 326 326 322 317 316 312 308 304 316 299 270 256 253
34 13 4 358 352 3 349 343 339 340 336 333 337 333 332 327 326 324 325 324 321 321 318 315 312 310 325 321 309 301 305 289
21 360 358 354 346 349 338 335 334 333 331 337 335 333 330 324 322 319 318 319 319 319 315 314 309 308 309 305 304 301 294 288
8 356 348 347 354 335 335 328 335 330 334 330 326 326 325 322 316 319 316 313 311 309 311 306 303 295 296 295 294 289 287 287
358 351 347 349 348 335 333 330 331 336 333 333 330 324 321 317 316 314 314 312 310 304 303 299 297 294 286 287 289 280 282 281
3 350 348 346 339 333 334 336 339 340 333 328 325 322 321 317 318 315 311 309 305 298 299 297 292 290 287 292 284 276 280 281
355 343 343 345 345 342 343 346 346 336 324 321 321 319 317 315 315 311 307 300 299 294 290 286 287 286 282 283 269 277 280 279
0 357 356 347 347 345 341 343 327 319 319 323 321 318 313 313 312 310 309 304 300 295 293 287 282 282 282 279 271 263 275 277
2 353 348 352 342 338 340 331 327 326 324 324 321 319 318 319 317 314 307 307 305 301 298 294 287 275 276 280 273 273 267 268
350 333 338 348 353 343 334 330 329 327 327 328 329 332 328 325 321 317 316 310 319 327 319 309 301 284 281 283 281 286 282 265
348 347 349 350 341 332 329 333 332 331 331 335 340 336 334 331 328 323 346 353 349 342 333 318 305 298 290 283 283 292 297 297
2 350 335 335 334 335 339 342 342 335 333 339 334 337 337 337 341 345 352 359 355 349 342 345 344 320 319 315 320 307 302 38
349 338 336 334 337 341 345 345 333 335 339 338 334 339 344 345 341 358 2 2 7 11 8 359 7 15 33 38 36 26 36 42
345 333 324 329 334 331 340 338 337 335 332 336 342 346 348 354 355 344 350 3 3 10 14 17 16 24 29 35 46 41 39 36
334 333 331 341 334 325 334 330 321 324 332 344 346 349 350 350 354 350 355 351 350 357 13 13 20 25 33 34 39 31 29 30
335 323 349 340 323 329 334 326 321 335 342 343 341 348 352 350 355 352 360 359 350 345 11 10 13 24 30 31 36 33 28 16